Location: Unspecified
(48.8656°N, 0.0000°E)
Time: 08:18:41
(UTC+00:00)

SR - Pass Details

Date: 27 June 2019
Orbit: 580 x 875 km, 66.7° (Epoch: 16 July)

Event Time Altitude Azimuth Distance (km) Brightness Sun altitude
Rises 12:42:36 0° 307° (NW) 3,081 ? 63.3°
Reaches altitude 10° 12:46:18 10° 278° (W) 2,230 ? 63.1°
Maximum altitude 12:48:18 12° 254° (WSW) 2,109 ? 62.9°
Drops below altitude 10° 12:50:21 10° 231° (SW) 2,302 ? 62.8°
Sets 12:54:20 0° 203° (SSW) 3,296 ? 62.5°
